Location: São Paulo
(23.5507°S, 46.6334°W)
Time: 08:00:03
(UTC-03:00)

Transit 4A - Pass Details

Date: 21 February 2026
Orbit: 864 x 977 km, 66.8° (Epoch: 11 March)

Event Time Altitude Azimuth Distance (km) Brightness Sun altitude
Rises 15:55:42 0° 284° (WNW) 3,662 12.0 37.1°
Reaches altitude 10° 16:01:09 10° 246° (WSW) 2,705 11.3 35.8°
Maximum altitude 16:02:17 11° 235° (SW) 2,667 11.1 35.6°
Drops below altitude 10° 16:03:26 10° 224° (SW) 2,698 11.0 35.3°
Sets 16:08:51 0° 186° (S) 3,620 11.0 34.1°
